Change the Weather History Date:

Monday, October 22, 2012

  Actual Average (KBTL) Record (KBTL)
Temperature  
Mean Temperature 57 °F 48 °F  
Max Temperature 70 °F 59 °F 70 °F (2000)
Min Temperature 44 °F 38 °F 28 °F (1998)
Degree Days  
Heating Degree Days 8 17  
Month to date heating degree days 300  
Since 1 July heating degree days 497  
Cooling Degree Days 0 0  
Month to date cooling degree days 2  
Year to date cooling degree days 575  
Growing Degree Days 7 (Base 50)    
Moisture  
Dew Point 52 °F    
Average Humidity 80    
Maximum Humidity 91    
Minimum Humidity 56    
Precipitation  
Precipitation 0.00 in 0.10 in 0.68 in (2012)
Month to date precipitation 2.25  
Year to date precipitation 27.44  
Sea Level Pressure  
Sea Level Pressure 30.01 in    
Wind  
Wind Speed 2 mph (SSE)    
Max Wind Speed 12 mph    
Max Gust Speed 21 mph    
Visibility 10 miles    
Events Rain    
T = Trace of Precipitation, MM = Missing Value Source: NWS Daily Summary

Daily Weather History Graph

Daily Weather History Graph

Search for Another Location

Airport or City:

Trip Planner

Search our weather history database for the weather conditions in past years. The results will help you decide how hot, cold, wet, or windy it might be!

Date:

Astronomy

Oct. 22, 2012 Rise Set
Actual Time 8:01 AM EDT 6:46 PM EDT
Civil Twilight 7:32 AM EDT 7:14 PM EDT
Nautical Twilight 7:00 AM EDT 7:47 PM EDT
Astronomical Twilight 6:27 AM EDT 8:20 PM EDT
Moon 3:00 PM EDT (10/22) 12:39 AM EDT (10/22)
Length of Visible Light 11h 42m
Length of Day
10h 45m
First Quarter, 56% of the Moon is Illuminated
Oct 22
First Quarter
Oct 29
Full
Nov 6
Last Quarter
Nov 13
New
Nov 20
First Quarter

Hourly Weather History & Observations

Time (EDT) Temp. Windchill Dew Point Humidity Pressure Visibility Wind Dir Wind Speed Gust Speed Precip Events Conditions
12:34 AM 44.4 °F 42.9 °F 40.8 °F 87% 30.06 in 10.0 mi ESE 3.5 mph - N/A   Clear
12:53 AM 47.1 °F - 43.2 °F 86% 30.05 in 10.0 mi SE 3.5 mph - N/A   Clear
1:14 AM 48.7 °F - 44.2 °F 84% 30.05 in 10.0 mi Calm Calm - N/A   Clear
1:53 AM 49.5 °F - 44.8 °F 84% 30.04 in 10.0 mi Calm Calm - N/A   Clear
2:14 AM 50.4 °F - 45.1 °F 82% 30.05 in 10.0 mi Calm Calm - N/A   Clear
2:34 AM 49.5 °F - 44.8 °F 84% 30.05 in 10.0 mi Calm Calm - N/A   Clear
2:53 AM 49.1 °F - 45.0 °F 86% 30.05 in 10.0 mi Calm Calm - N/A   Clear
3:14 AM 48.4 °F - 44.4 °F 86% 30.05 in 10.0 mi Calm Calm - N/A   Clear
3:33 AM 48.9 °F - 44.8 °F 86% 30.05 in 10.0 mi Calm Calm - N/A   Clear
3:53 AM 48.2 °F - 44.6 °F 87% 30.05 in 10.0 mi Calm Calm - N/A   Clear
4:14 AM 48.2 °F - 44.6 °F 87% 30.05 in 10.0 mi Calm Calm - N/A   Clear
4:53 AM 49.1 °F - 45.1 °F 86% 30.05 in 10.0 mi Calm Calm - N/A   Clear
5:14 AM 48.7 °F - 45.0 °F 87% 30.04 in 10.0 mi Calm Calm - N/A   Clear
5:33 AM 49.5 °F - 45.3 °F 86% 30.04 in 10.0 mi SSE 3.5 mph - N/A   Clear
5:53 AM 50.0 °F - 45.7 °F 85% 30.05 in 10.0 mi SSE 4.6 mph - N/A   Clear
6:14 AM 50.4 °F - 45.9 °F 85% 30.05 in 10.0 mi SSE 3.5 mph - N/A   Clear
6:33 AM 50.4 °F - 45.9 °F 85% 30.05 in 10.0 mi SSE 3.5 mph - N/A   Clear
6:54 AM 50.4 °F - 45.9 °F 85% 30.05 in 10.0 mi SE 3.5 mph - N/A   Clear
7:13 AM 50.4 °F - 45.9 °F 85% 30.05 in 10.0 mi SSE 3.5 mph - N/A   Clear
7:33 AM 50.4 °F - 45.9 °F 85% 30.05 in 10.0 mi Calm Calm - N/A   Clear
7:54 AM 50.2 °F - 45.7 °F 85% 30.04 in 10.0 mi Calm Calm - N/A   Clear
8:13 AM 50.4 °F - 45.9 °F 85% 30.04 in 10.0 mi SSE 3.5 mph - N/A   Clear
8:33 AM 50.7 °F - 46.2 °F 85% 30.05 in 10.0 mi SSE 3.5 mph - N/A   Clear
9:13 AM 52.9 °F - 47.5 °F 82% 30.05 in 10.0 mi SSE 3.5 mph - N/A   Clear
9:34 AM 54.5 °F - 48.2 °F 79% 30.06 in 10.0 mi SSE 3.5 mph - N/A   Clear
9:53 AM 55.8 °F - 48.7 °F 77% 30.05 in 10.0 mi Calm Calm - N/A   Clear
10:14 AM 57.6 °F - 49.6 °F 75% 30.05 in 10.0 mi South 3.5 mph - N/A   Clear
10:34 AM 60.4 °F - 51.1 °F 71% 30.05 in 10.0 mi South 3.5 mph - N/A   Clear
10:53 AM 61.9 °F - 52.0 °F 70% 30.05 in 10.0 mi South 6.9 mph - N/A   Clear
11:14 AM 62.8 °F - 52.3 °F 69% 30.06 in 10.0 mi SSW 4.6 mph - N/A   Mostly Cloudy
11:34 AM 62.8 °F - 52.2 °F 68% 30.05 in 10.0 mi South 4.6 mph - N/A   Overcast
11:53 AM 63.5 °F - 52.3 °F 67% 30.04 in 10.0 mi SSE 3.5 mph - N/A   Overcast
12:14 PM 64.8 °F - 53.2 °F 66% 30.04 in 10.0 mi Calm Calm - N/A   Mostly Cloudy
12:33 PM 66.4 °F - 54.0 °F 64% 30.03 in 10.0 mi SSE 3.5 mph - N/A   Mostly Cloudy
12:53 PM 66.7 °F - 54.0 °F 63% 30.03 in 10.0 mi SSE 3.5 mph - N/A   Overcast
1:14 PM 67.1 °F - 54.1 °F 63% 30.03 in 10.0 mi South 4.6 mph - N/A   Mostly Cloudy
1:33 PM 67.5 °F - 53.8 °F 61% 30.02 in 10.0 mi SSE 3.5 mph - N/A   Mostly Cloudy
1:53 PM 68.2 °F - 53.8 °F 60% 30.01 in 10.0 mi SSE 3.5 mph - N/A   Scattered Clouds
2:14 PM 68.5 °F - 53.6 °F 59% 30.01 in 10.0 mi SSE 5.8 mph - N/A   Mostly Cloudy
2:33 PM 68.7 °F - 53.6 °F 58% 30.00 in 10.0 mi SSE 4.6 mph - N/A   Mostly Cloudy
2:53 PM 70.0 °F - 54.0 °F 57% 29.99 in 10.0 mi SSE 6.9 mph - N/A   Scattered Clouds
3:14 PM 70.3 °F - 54.0 °F 56% 29.99 in 10.0 mi SSE 9.2 mph - N/A   Mostly Cloudy
3:33 PM 66.9 °F - 57.0 °F 70% 30.01 in 7.0 mi SSW 6.9 mph 18.4 mph N/A Rain Rain
3:53 PM 63.9 °F - 58.3 °F 82% 30.00 in 10.0 mi Calm Calm - N/A Rain Light Rain
4:14 PM 64.4 °F - 58.5 °F 81% 29.98 in 10.0 mi South 3.5 mph - N/A   Scattered Clouds
4:33 PM 64.4 °F - 58.1 °F 80% 29.97 in 10.0 mi Calm Calm - N/A   Clear
4:54 PM 64.4 °F - 58.3 °F 80% 29.98 in 10.0 mi Calm Calm - N/A   Clear
5:14 PM 64.4 °F - 57.9 °F 79% 29.97 in 10.0 mi Calm Calm - N/A   Scattered Clouds
5:33 PM 64.8 °F - 57.9 °F 78% 29.97 in 10.0 mi Calm Calm - N/A   Scattered Clouds
5:54 PM 63.9 °F - 58.6 °F 83% 29.97 in 10.0 mi Calm Calm - N/A   Scattered Clouds
6:13 PM 62.2 °F - 58.6 °F 88% 29.97 in 10.0 mi Calm Calm - N/A Rain Light Rain
6:33 PM 63.0 °F - 58.3 °F 85% 29.98 in 10.0 mi SSW 3.5 mph - N/A   Scattered Clouds
6:54 PM 63.5 °F - 57.9 °F 82% 29.98 in 10.0 mi SW 4.6 mph - N/A Rain Light Rain
7:13 PM 63.3 °F - 58.3 °F 84% 29.99 in 10.0 mi SSW 4.6 mph - N/A Rain Light Rain
7:33 PM 62.6 °F - 58.5 °F 86% 29.99 in 10.0 mi SW 3.5 mph - N/A Rain Light Rain
7:54 PM 61.5 °F - 58.3 °F 89% 29.98 in 10.0 mi Calm Calm - N/A Rain Light Rain
8:13 PM 60.6 °F - 57.7 °F 90% 29.98 in 10.0 mi Calm Calm - N/A   Mostly Cloudy
8:33 PM 59.5 °F - 57.0 °F 91% 29.96 in 10.0 mi East 3.5 mph - N/A   Mostly Cloudy
8:54 PM 60.1 °F - 57.6 °F 91% 29.96 in 10.0 mi SE 3.5 mph - N/A   Mostly Cloudy
9:54 PM 61.7 °F - 58.3 °F 89% 29.93 in 10.0 mi SE 5.8 mph - N/A Rain Light Rain
10:13 PM 61.3 °F - 57.9 °F 89% 29.94 in 10.0 mi Calm Calm - N/A   Overcast
10:34 PM 61.2 °F - 57.9 °F 89% 29.93 in 10.0 mi ESE 4.6 mph - N/A   Overcast
10:53 PM 61.7 °F - 58.3 °F 89% 29.93 in 10.0 mi SE 4.6 mph - N/A   Overcast
11:13 PM 63.1 °F - 58.5 °F 85% 29.93 in 10.0 mi South 9.2 mph - N/A   Overcast
11:34 PM 63.5 °F - 58.8 °F 85% 29.96 in 10.0 mi North 11.5 mph 20.7 mph N/A   Drizzle
11:53 PM 62.8 °F - 58.8 °F 87% 29.97 in 4.0 mi South 3.5 mph 19.6 mph N/A Rain Heavy Rain